SL-16 DEB, 24301

Orbit data source: Space-Track

SL-16 DEB, 24301 is space debris in LEO originally from a launch on Wed, 04 Sep 1996 UTC launched from the Tyuratam Missile And Space Complex (TTMTR). Debris objects in space refer to the collection of defunct objects orbiting the Earth. Examples of debris include non-operational satellites, rocket bodies, and fragments generated from explosions, collisions, or faulty payload assembly.

Loading next visibility...
Identifier
24301, 1996-051E
Orbit
LEO
Country
Flag of CISCIS
Related business
Manufacturer
Yuzhnoe
Mission
Spacecraft
Bus & Motor
SEP MOTOR COVER, Unknown motor
Mass
~0 kg wet, ~1 kg dry
Launch date (UTC)
1996-09-04 (29 years ago)
Launch vehicle
Unknown
Launch site
Tyuratam Missile And Space Complex (TTMTR)
Object type
Payload
Rocket body
Debris
Shape & HBR
Unknown
Radar Cross Section
Small (<0.1 m²)

Expand to show TLE details & history
Last TLE update: 12 hours ago

TLE from 12 hours ago
0 SL-16 DEB
1 24301U 96051E   25309.21491567  .00000092  00000-0  12548-3 0  9999
2 24301  70.9926 229.2428 0205328 134.5800 344.4668 13.72542392460233
Epoch: 2025-11-05T05:09Z
TLE epoch observation values (Epoch: 2025-11-05T05:09:28.713Z)
Latitude
56.38381°
Longitude
-103.84237°
Altitude
853.761 km
Speed
7.504 km/s
True Right ascension
01h 12m 52s
True Declination
56° 13' 38"
Sunlit
Object was in full shadow at epoch
Visualization orbit readout
Latitude
Unknown
Longitude
Unknown
Altitude
Unknown
Speed
Unknown
Apparent Right ascension
Unknown
Apparent Declination
Unknown
Sunlit
N/A
Visualization observer readout
Local Sidereal Time
12:50:43
Azimuth
Unknown
Elevation
Unknown
Doppler factor
Unknown
Orbital elements
Apogee altitude
1,139.68 km
Perigee altitude
837.168 km
Semi-major axis
7,366.561 km
Eccentricity
0.02053
Inclination
70.9926°
RAAN
229.2428°
Arg. of periapsis
134.58°
True anomaly
343.82076°
Mean anomaly
344.4668°
Eccentric anomaly
344.1454°
Mean motion
3.43278 °/min
Orbital period
104.87 mins
BSTAR
0.00012548
Loading maneuver chart data...
Computing Atmospheric mass density...
Loading historical data...
Loading historical data...
Loading historical data...
Loading historical data...
Loading historical data...
Loading historical data...
Loading historical data...

Documentation

Showing up to 5 results
|